2022/12/21 00:00:00,12.1,-2.3
2022/12/21 00:10:00,12.1,-2.1
2022/12/21 00:20:00,12.0,-2.2
2022/12/21 00:30:00,12.0,-2.4
2022/12/21 00:40:00,12.0,-2.4
2022/12/21 00:50:00,12.0,-2.6
2022/12/21 01:00:00,12.0,-2.6
2022/12/21 01:10:00,12.0,-2.8
2022/12/21 01:20:00,12.0,-2.5
2022/12/21 01:30:00,12.0,-2.8
2022/12/21 01:40:00,12.0,-2.8
2022/12/21 01:50:00,12.0,-2.6
2022/12/21 02:00:00,12.0,-2.8
2022/12/21 02:10:00,12.0,-2.8
2022/12/21 02:20:00,12.0,-2.8
2022/12/21 02:30:00,12.0,-2.9
2022/12/21 02:40:00,12.0,-3.0
2022/12/21 02:50:00,12.0,-2.9
2022/12/21 03:00:00,12.0,-3.1
2022/12/21 03:10:00,12.0,-2.9
2022/12/21 03:20:00,12.0,-2.8
2022/12/21 03:30:00,12.0,-3.1
2022/12/21 03:40:00,12.0,-2.9
2022/12/21 03:50:00,11.9,-3.0
2022/12/21 04:00:00,11.9,-2.8
2022/12/21 04:10:00,11.9,-3.0
2022/12/21 04:20:00,11.9,-2.6
2022/12/21 04:30:00,11.9,-2.8
2022/12/21 04:40:00,11.9,-3.2
2022/12/21 04:50:00,11.8,-2.8
2022/12/21 05:00:00,11.8,-2.8
2022/12/21 05:10:00,11.8,-2.6
2022/12/21 05:20:00,11.7,-2.7
2022/12/21 05:30:00,11.7,-2.8
2022/12/21 05:40:00,11.7,-3.1
2022/12/21 05:50:00,11.7,-2.8
2022/12/21 06:00:00,11.7,-2.8
2022/12/21 06:10:00,11.7,-2.8
2022/12/21 06:20:00,11.7,-3.0
2022/12/21 06:30:00,11.7,-3.0
2022/12/21 06:40:00,11.7,-3.1
2022/12/21 06:50:00,11.7,-3.1
2022/12/21 07:00:00,11.7,-2.9
2022/12/21 07:10:00,11.7,-3.1
2022/12/21 07:20:00,11.6,-2.9
2022/12/21 07:30:00,11.6,-3.1
2022/12/21 07:40:00,11.7,-3.2
2022/12/21 07:50:00,11.7,-2.8
2022/12/21 08:00:00,11.8,-2.6
2022/12/21 08:10:00,11.8,-2.4
2022/12/21 08:20:00,11.8,-1.8
2022/12/21 08:30:00,11.9,-1.8
2022/12/21 08:40:00,11.8,-1.7
2022/12/21 08:50:00,11.7,-1.5
2022/12/21 09:00:00,11.7,-1.4
2022/12/21 09:10:00,11.8,-1.0
2022/12/21 09:20:00,11.8,-1.1
2022/12/21 09:30:00,11.8,-0.6
2022/12/21 09:40:00,11.9,-0.5
2022/12/21 09:50:00,11.9,-0.1
2022/12/21 10:00:00,11.9, 0.3
2022/12/21 10:10:00,11.9, 0.3
2022/12/21 10:20:00,11.9, 0.5
2022/12/21 10:30:00,11.8, 0.2
2022/12/21 10:40:00,11.7, 0.4
2022/12/21 10:50:00,11.5, 0.4
2022/12/21 11:00:00,11.7, 0.7
2022/12/21 11:10:00,11.7, 0.6
2022/12/21 11:20:00,11.8, 1.0
2022/12/21 11:30:00,11.8, 0.7
2022/12/21 11:40:00,11.7, 0.9
2022/12/21 11:50:00,11.6, 0.8
2022/12/21 12:00:00,11.5, 0.8
2022/12/21 12:10:00,11.5, 0.9
2022/12/21 12:20:00,11.5, 1.0
2022/12/21 12:30:00,11.6, 1.3
2022/12/21 12:40:00,11.5, 1.8
2022/12/21 12:50:00,11.2, 1.8
2022/12/21 13:00:00,11.0, 1.9
2022/12/21 13:10:00,11.0, 1.8
2022/12/21 13:20:00,10.9, 1.7
2022/12/21 13:30:00,10.5, 1.5
2022/12/21 13:40:00,10.5, 1.6
2022/12/21 13:50:00,10.5, 1.4
2022/12/21 14:00:00,10.3, 1.1
2022/12/21 14:10:00,10.0, 0.8
2022/12/21 14:20:00, 9.9, 0.9
2022/12/21 14:30:00, 9.8, 0.8
2022/12/21 14:40:00, 9.8, 0.9
2022/12/21 14:50:00, 9.7, 0.6
2022/12/21 15:00:00, 9.8, 0.7
2022/12/21 15:10:00, 9.8, 0.9
2022/12/21 15:20:00, 9.5, 0.8
2022/12/21 15:30:00, 9.3, 0.7
2022/12/21 15:40:00, 9.2, 0.6
2022/12/21 15:50:00, 9.2, 0.5
2022/12/21 16:00:00, 9.1, 0.4
2022/12/21 16:10:00, 9.1, 0.4
2022/12/21 16:20:00, 9.0, 0.4
2022/12/21 16:30:00, 8.9, 0.0
2022/12/21 16:40:00, 8.8, 0.2
2022/12/21 16:50:00, 8.8, 0.2
2022/12/21 17:00:00, 8.8, 0.1
2022/12/21 17:10:00, 8.7, 0.0
2022/12/21 17:20:00, 8.7, 0.2
2022/12/21 17:30:00, 8.6, 0.2
2022/12/21 17:40:00, 8.4, 0.2
2022/12/21 17:50:00, 8.4, 0.3
2022/12/21 18:00:00, 8.3, 0.3
2022/12/21 18:10:00, 8.3, 0.2
2022/12/21 18:20:00, 8.3, 0.4
2022/12/21 18:30:00, 8.3, 0.6
2022/12/21 18:40:00, 8.2, 0.9
2022/12/21 18:50:00, 8.1, 0.7
2022/12/21 19:00:00, 8.0, 0.9
2022/12/21 19:10:00, 8.1, 1.0
2022/12/21 19:20:00, 8.0, 1.0
2022/12/21 19:30:00, 7.8, 1.2
2022/12/21 19:40:00, 7.7, 1.4
2022/12/21 19:50:00, 7.6, 1.3
2022/12/21 20:00:00, 7.5, 1.3
2022/12/21 20:10:00, 7.5, 1.3
2022/12/21 20:20:00, 7.4, 1.6
2022/12/21 20:30:00, 7.4, 2.1
2022/12/21 20:40:00, 7.4, 2.3
2022/12/21 20:50:00, 7.4, 2.2
2022/12/21 21:00:00, 7.4, 2.7
2022/12/21 21:10:00, 7.1, 2.2
2022/12/21 21:20:00, 7.0, 2.5
2022/12/21 21:30:00, 6.9, 2.2
2022/12/21 21:40:00, 6.8, 3.2
2022/12/21 21:50:00, 6.6, 2.9
2022/12/21 22:00:00, 6.4, 2.9
2022/12/21 22:10:00, 6.4, 2.4
2022/12/21 22:20:00, 6.3, 2.3
2022/12/21 22:30:00, 6.3, 2.2
2022/12/21 22:40:00, 6.3, 2.3
2022/12/21 22:50:00, 6.2, 2.2
2022/12/21 23:00:00, 5.9, 2.0
2022/12/21 23:10:00, 5.8, 2.0
2022/12/21 23:20:00, 5.7, 1.7
2022/12/21 23:30:00, 5.7, 2.0
2022/12/21 23:40:00, 5.6, 1.9
2022/12/21 23:50:00, 5.5, 1.7
